Location: Brahman Valley
(40.6513°N, 111.8855°W)
Time: 20:35:14
(UTC+00:00)

Vanguard 2 - Pass Details

Date: 17 May 2021
Orbit: 552 x 2937 km, 32.9° (Epoch: 14 June)

Event Time Altitude Azimuth Distance (km) Brightness Sun altitude
Rises 11:01:01 0° 222° (SW) 3,599 - -11.6°
Reaches altitude 10° 11:03:27 10° 212° (SSW) 2,902 - -11.2°
Exits shadow 11:03:45 11° 210° (SSW) 2,827 9.8 -11.2°
Maximum altitude 11:09:55 34° 149° (SSE) 2,216 9.8 -10.3°
Drops below altitude 10° 11:19:55 10° 91° (E) 4,544 12.3 -8.7°
Sets 11:24:47 0° 84° (E) 5,938 13.3 -8.0°
